When you browse on this site, cookies collect data to enhance your experience and personalize the content and advertising you see.
Visit our Privacy Policy to learn more. By continuing to use the site, you agree to this use of cookies and data.
  • In Hungary
  • List of Countries
  • For 7 days
  • Water Temperature
  • Weather Map
  • News
  • Weather Widgets
  • user-avatar
    Login

    Hourly Weather Tkaczew

    Today, 24 August, Saturday

    Time Temperature Precipitation Wind Pressure Humidity
    00:00 +18°C° 0 mm 2 mps 758 mmHg 76%
    01:00 +18°C° 0 mm 2 mps 759 mmHg 79%
    02:00 +17°C° 0 mm 2 mps 759 mmHg 81%
    03:00 +17°C° 0 mm 2 mps 759 mmHg 82%
    04:00 +17°C° 0 mm 2 mps 758 mmHg 84%
    05:00 +18°C° 0 mm 2 mps 758 mmHg 79%
    06:00 +19°C° 0 mm 2 mps 758 mmHg 75%
    07:00 +20°C° 0 mm 2 mps 759 mmHg 69%
    08:00 +21°C° 0 mm 3 mps 759 mmHg 62%
    09:00 +24°C° 0 mm 3 mps 759 mmHg 55%
    10:00 +26°C° 0 mm 4 mps 759 mmHg 48%
    11:00 +26°C° 0 mm 4 mps 758 mmHg 46%
    12:00 +27°C° 0 mm 4 mps 758 mmHg 45%
    13:00 +27°C° 0 mm 4 mps 758 mmHg 43%
    14:00 +27°C° 0 mm 4 mps 758 mmHg 43%
    15:00 +27°C° 0 mm 4 mps 757 mmHg 43%
    16:00 +27°C° 0 mm 4 mps 757 mmHg 43%
    17:00 +26°C° 0 mm 4 mps 757 mmHg 48%
    18:00 +24°C° 0 mm 3 mps 757 mmHg 53%
    19:00 +21°C° 0 mm 3 mps 757 mmHg 58%
    20:00 +21°C° 0 mm 3 mps 757 mmHg 59%
    21:00 +20°C° 0 mm 3 mps 757 mmHg 60%
    22:00 +19°C° 0 mm 3 mps 757 mmHg 61%
    23:00 +19°C° 0 mm 3 mps 757 mmHg 63%

    Tomorrow, 25 August, Sunday

    Time Temperature Precipitation Wind Pressure Humidity
    00:00 +18°C° 0 mm 3 mps 757 mmHg 65%
    01:00 +18°C° 0 mm 3 mps 757 mmHg 67%
    02:00 +17°C° 0 mm 3 mps 757 mmHg 71%
    03:00 +17°C° 0 mm 3 mps 757 mmHg 75%
    04:00 +17°C° 0 mm 3 mps 757 mmHg 79%
    05:00 +17°C° 0 mm 4 mps 757 mmHg 76%
    06:00 +18°C° 0 mm 4 mps 757 mmHg 72%
    07:00 +19°C° 0 mm 4 mps 757 mmHg 69%
    08:00 +21°C° 0 mm 5 mps 757 mmHg 63%
    09:00 +22°C° 0 mm 5 mps 757 mmHg 56%
    10:00 +25°C° 0 mm 5 mps 757 mmHg 50%
    11:00 +26°C° 0 mm 5 mps 757 mmHg 48%
    12:00 +27°C° 0 mm 5 mps 757 mmHg 46%
    13:00 +27°C° 0 mm 5 mps 756 mmHg 45%
    14:00 +27°C° 0 mm 5 mps 756 mmHg 46%
    15:00 +28°C° 0 mm 5 mps 756 mmHg 46%
    16:00 +28°C° 0 mm 5 mps 756 mmHg 47%
    17:00 +26°C° 0 mm 4 mps 756 mmHg 52%
    18:00 +25°C° 0 mm 4 mps 756 mmHg 57%
    19:00 +22°C° 0 mm 4 mps 756 mmHg 62%
    20:00 +21°C° 0 mm 4 mps 756 mmHg 64%
    21:00 +21°C° 0 mm 3 mps 756 mmHg 67%
    22:00 +20°C° 0 mm 3 mps 756 mmHg 69%
    23:00 +20°C° 0 mm 3 mps 756 mmHg 71%

    Day after tomorrow, 26 August, Monday

    Time Temperature Precipitation Wind Pressure Humidity
    00:00 +19°C° 0 mm 3 mps 756 mmHg 73%
    01:00 +19°C° 0 mm 3 mps 756 mmHg 75%
    02:00 +19°C° 0 mm 3 mps 755 mmHg 77%
    03:00 +18°C° 0 mm 3 mps 755 mmHg 78%
    04:00 +18°C° 0 mm 3 mps 755 mmHg 80%
    05:00 +19°C° 0 mm 4 mps 755 mmHg 77%
    06:00 +19°C° 0 mm 4 mps 755 mmHg 75%
    07:00 +20°C° 0 mm 4 mps 755 mmHg 73%
    08:00 +22°C° 0 mm 4 mps 755 mmHg 68%
    09:00 +25°C° 0 mm 4 mps 755 mmHg 62%
    10:00 +27°C° 0 mm 4 mps 755 mmHg 57%
    11:00 +28°C° 0 mm 4 mps 755 mmHg 54%
    12:00 +29°C° 0 mm 4 mps 754 mmHg 51%
    13:00 +30°C° 0 mm 4 mps 754 mmHg 48%
    14:00 +30°C° 0 mm 4 mps 754 mmHg 48%
    15:00 +30°C° 0 mm 4 mps 754 mmHg 48%
    16:00 +30°C° 0 mm 3 mps 753 mmHg 48%
    17:00 +29°C° 0.2 mm 3 mps 753 mmHg 55%
    18:00 +27°C° 0.2 mm 3 mps 753 mmHg 61%
    19:00 +25°C° 0.2 mm 3 mps 753 mmHg 68%
    20:00 +24°C° 0.4 mm 3 mps 753 mmHg 72%
    21:00 +24°C° 0.4 mm 3 mps 753 mmHg 76%
    22:00 +22°C° 0.4 mm 3 mps 754 mmHg 80%
    23:00 +22°C° 0.2 mm 3 mps 754 mmHg 82%

    27 August, Tuesday

    Time Temperature Precipitation Wind Pressure Humidity
    00:00 +21°C° 0.2 mm 3 mps 753 mmHg 84%
    01:00 +21°C° 0.2 mm 3 mps 753 mmHg 86%
    02:00 +21°C° 0.3 mm 3 mps 753 mmHg 87%
    03:00 +21°C° 0.3 mm 3 mps 753 mmHg 88%
    04:00 +20°C° 0.3 mm 3 mps 753 mmHg 89%
    05:00 +21°C° 0 mm 3 mps 753 mmHg 85%
    06:00 +22°C° 0 mm 3 mps 753 mmHg 82%
    07:00 +22°C° 0 mm 4 mps 754 mmHg 78%
    08:00 +25°C° 0 mm 4 mps 754 mmHg 71%
    09:00 +27°C° 0 mm 4 mps 754 mmHg 64%
    10:00 +29°C° 0 mm 4 mps 754 mmHg 57%
    11:00 +30°C° 0 mm 3 mps 754 mmHg 53%
    12:00 +31°C° 0 mm 3 mps 754 mmHg 49%
    13:00 +33°C° 0 mm 3 mps 754 mmHg 45%
    14:00 +33°C° 0 mm 3 mps 753 mmHg 45%
    15:00 +33°C° 0 mm 3 mps 753 mmHg 45%
    16:00 +33°C° 0 mm 3 mps 753 mmHg 45%
    17:00 +30°C° 0.1 mm 3 mps 753 mmHg 51%
    18:00 +28°C° 0.1 mm 3 mps 753 mmHg 56%
    19:00 +27°C° 0.1 mm 3 mps 753 mmHg 62%
    20:00 +26°C° 0.3 mm 4 mps 753 mmHg 65%
    21:00 +25°C° 0.3 mm 4 mps 753 mmHg 69%
    22:00 +23°C° 0.3 mm 4 mps 754 mmHg 72%
    23:00 +23°C° 0.1 mm 4 mps 754 mmHg 74%

    28 August, Wednesday

    Time Temperature Precipitation Wind Pressure Humidity
    00:00 +22°C° 0.1 mm 4 mps 753 mmHg 76%
    01:00 +22°C° 0.1 mm 3 mps 753 mmHg 77%
    02:00 +21°C° 0 mm 3 mps 753 mmHg 78%
    03:00 +21°C° 0 mm 3 mps 753 mmHg 79%
    04:00 +20°C° 0 mm 3 mps 753 mmHg 79%
    05:00 +21°C° 0 mm 4 mps 753 mmHg 76%
    06:00 +22°C° 0 mm 4 mps 753 mmHg 72%
    07:00 +22°C° 0 mm 5 mps 753 mmHg 68%
    08:00 +25°C° 0 mm 5 mps 753 mmHg 62%
    09:00 +27°C° 0 mm 5 mps 753 mmHg 55%
    10:00 +29°C° 0 mm 5 mps 753 mmHg 49%
    11:00 +30°C° 0 mm 5 mps 752 mmHg 46%
    12:00 +32°C° 0 mm 5 mps 752 mmHg 43%
    13:00 +33°C° 0 mm 5 mps 752 mmHg 40%
    14:00 +33°C° 0 mm 5 mps 751 mmHg 41%
    15:00 +33°C° 0 mm 5 mps 751 mmHg 41%
    16:00 +33°C° 0 mm 5 mps 751 mmHg 42%
    17:00 +30°C° 0 mm 5 mps 751 mmHg 47%
    18:00 +29°C° 0 mm 5 mps 751 mmHg 51%
    19:00 +27°C° 0 mm 5 mps 751 mmHg 56%
    20:00 +26°C° 0.2 mm 5 mps 751 mmHg 59%
    21:00 +25°C° 0.2 mm 5 mps 751 mmHg 62%
    22:00 +23°C° 0.2 mm 5 mps 751 mmHg 65%
    23:00 +23°C° 0.1 mm 5 mps 751 mmHg 68%

    29 August, Thursday

    Time Temperature Precipitation Wind Pressure Humidity
    00:00 +22°C° 0.1 mm 5 mps 751 mmHg 70%
    01:00 +22°C° 0.1 mm 5 mps 751 mmHg 72%
    02:00 +21°C° 0 mm 4 mps 751 mmHg 73%
    03:00 +21°C° 0 mm 4 mps 751 mmHg 75%
    04:00 +20°C° 0 mm 4 mps 750 mmHg 76%
    05:00 +21°C° 0 mm 4 mps 750 mmHg 74%
    06:00 +21°C° 0 mm 5 mps 750 mmHg 71%
    07:00 +21°C° 0 mm 5 mps 750 mmHg 69%
    08:00 +23°C° 0 mm 5 mps 750 mmHg 64%
    09:00 +25°C° 0 mm 5 mps 750 mmHg 59%
    10:00 +27°C° 0 mm 5 mps 750 mmHg 54%
    11:00 +28°C° 0 mm 5 mps 750 mmHg 53%
    12:00 +29°C° 0 mm 5 mps 750 mmHg 51%
    13:00 +30°C° 0 mm 5 mps 750 mmHg 49%
    14:00 +30°C° 0 mm 5 mps 750 mmHg 49%
    15:00 +30°C° 0 mm 5 mps 750 mmHg 49%
    16:00 +30°C° 0 mm 4 mps 750 mmHg 49%
    17:00 +29°C° 0 mm 5 mps 750 mmHg 53%
    18:00 +28°C° 0 mm 5 mps 750 mmHg 56%
    19:00 +26°C° 0 mm 5 mps 750 mmHg 60%
    20:00 +26°C° 0 mm 5 mps 750 mmHg 62%
    21:00 +25°C° 0 mm 4 mps 750 mmHg 65%
    22:00 +23°C° 0 mm 4 mps 750 mmHg 67%
    23:00 +23°C° 0.1 mm 4 mps 750 mmHg 70%
    Show more